Location: Rounton
(54.4000°N, 1.3500°W)
Time: 07:39:20
(UTC+00:00)

SR - Pass Details

Date: 30 November 2021
Orbit: 582 x 872 km, 66.7° (Epoch: 23 January)

Event Time Altitude Azimuth Distance (km) Brightness Sun altitude
Exits shadow 06:27:39 11° 332° (NNW) 1,834 ? -12.8°
Maximum altitude 06:30:47 23° 23° (NNE) 1,283 ? -12.4°
Drops below altitude 10° 06:34:13 10° 76° (ENE) 1,933 ? -11.9°
Sets 06:36:54 0° 92° (E) 2,861 ? -11.5°
